Tracking 27380 objects as of 6-Jun-2023
HD Live streaming from Space Station
objects crossing your sky now

SL-12 R/B(AUX MOTOR)

Track SL-12 R/B(AUX MOTOR) now!
10-day predictions


NORAD ID: 33385
Int'l Code: 2008-046H
Perigee: 662.7 km
Apogee: 18,954.7 km
Inclination: 64.9 °
Period: 341.4 minutes
Semi major axis: 16179 km
RCS: 0.543 m2 (medium)
Launch date: September 25, 2008
Source: Commonwealth of Independent States (former USSR) (CIS)
Launch site: TYURATAM MISSILE AND SPACE COMPLEX (TTMTR)

Note: This is a ROCKET BODY
Your satellite tracking list
Your tracking list is empty




NASA's NSSDC Master Catalog

Two Line Element Set (TLE):
1 33385U 08046H   23155.01979589 -.00000121  00000-0 -91948-3 0  9994
2 33385  64.8572  72.9032 5652742 322.5258   9.0957  4.21838313138697
Source of the keplerian elements: AFSPC